Flag for Dominican Republic Weather past 2 weeks in Punta Cana, Dominican Republic

Now
79 °F

Scattered clouds.


Feels Like: 82 °F
Forecast: 74 / 84 °F
Wind: 9 mph from South

Location: Punta Cana


UV Index: 10 (Very high)

Visibility: N/A


Pressure: 30.01 "Hg

Humidity: 79%

Dew point: 72 °F

Location of Punta CanaLocation

Historic Weather in Punta Cana

°F

Punta Cana temperature yesterday

Maximum temperature yesterday: 86 °F (at 3:00 PM)
Minimum temperature yesterday: 75 °F (at 3:00 AM)
Average temperature yesterday: 80 °F

Past Weeks' High & Low Weather Summary

 TemperatureHumidityPressure
High86 °F (Apr 6, 1:00 PM)100% (Apr 12, 7:00 AM)30.12 "Hg (Apr 12, 7:00 AM)
Low72 °F (Apr 6, 9:00 PM)51% (Apr 12, 12:00 PM)29.89 "Hg (Apr 15, 5:00 PM)
Average80 °F75%30.02 "Hg
* Reported Apr 6 7:00 AM — Apr 21 7:00 AM, Punta Cana, Weather by CustomWeather, © 2014

Note: Actual official high and low records may vary slightly from our data, if they occured in-between our weather recording intervals... More about our weather records

Advertising

Historic Weather Conditions — Data for Previous 24 hours

 ConditionsComfort  
Time TempWeatherWind HumidityBarometerVisibility
7:00 AM
Apr 21
79 °FScattered clouds.9 mph79%30.01 "HgN/A
6:00 AM79 °FPassing clouds.7 mph79%29.98 "HgN/A
5:00 AM79 °FPassing clouds.12 mph79%29.98 "HgN/A
4:00 AM79 °FPassing clouds.12 mph79%29.98 "HgN/A
3:00 AM77 °FPassing clouds.7 mph83%30.01 "HgN/A
1:00 AM77 °FPassing clouds.5 mph89%30.01 "HgN/A
12:00 AM77 °FPassing clouds.5 mph83%30.04 "HgN/A
11:00 PM
Apr 20
79 °FPassing clouds.9 mph79%30.04 "HgN/A
10:00 PM79 °FPassing clouds.5 mph84%30.04 "HgN/A
9:00 PM79 °FPassing clouds.7 mph79%30.01 "HgN/A
8:00 PM79 °FPassing clouds.7 mph79%30.01 "HgN/A
7:00 PM79 °FPassing clouds.7 mph79%30.01 "HgN/A
6:00 PM82 °FPassing clouds.9 mph70%30.01 "HgN/A
5:00 PM84 °FScattered clouds.12 mph66%30.01 "HgN/A
4:00 PM84 °FScattered clouds.14 mph70%30.01 "HgN/A
3:00 PM86 °FScattered clouds.14 mph62%30.04 "HgN/A
2:00 PM84 °FScattered clouds.7 mph70%30.07 "HgN/A
1:00 PM84 °FPassing clouds.16 mph66%30.07 "HgN/A
12:00 PM84 °FScattered clouds.12 mph66%30.07 "HgN/A
11:00 AM84 °FPartly sunny.12 mph66%30.07 "HgN/A
10:00 AM82 °FPassing clouds.12 mph70%30.07 "HgN/A
9:00 AM82 °FPassing clouds.10 mph70%30.07 "HgN/A
8:00 AM81 °FScattered clouds.7 mph74%30.07 "HgN/A
Weather by CustomWeather, © 2014

See weather overview